Starlink 3705

operational
NORAD ID: 52103 Int'l Des: 2022-029 Owner: SPXS Country: US Constellation: starlink
LEOCIRCULAR

About Starlink 3705

Description loading...

Live Position

Loading 3D Globe...

Upcoming Passes

Altitude History

Altitude vs Time

uPlot chart will show altitude changes over time

Two-Line Element Set

1 52103U 22029R 25352.29459969 .00000559 00000-0 53242-4 0 9995
2 52103 53.2187 84.5173 0001276 89.2869 270.8270 15.08830247208492
Epoch: Dec 18, 2025 • Age: 9 hours

Current Status

Altitude 540.6 km
Velocity 7.60 km/s
Sub-Earth Point 27.94°N, 82.66°W
Launch Date Mar 19, 2022
Age 3.7 years
Type internet

Technical Details

Classification Payload
Mass 297.00 kg
Dry Mass 275.00 kg
Total Mass 297.00 kg
Length 0.20 m
Diameter 2.80 m
Span 9.00 m
Shape Box + pan
Manufacturer SPXS
Bus Type Starlink
Phase Status In Orbit
Owner/State SPXS/US

Large Constellations

Loading constellations...